BVLO2: Caney River, Bartlesville, OK

Data processed at Wed May 22 2019 23:50


All information presented herein is the property of the government of the United States of America and may be revised or deleted at any time without prior notice.
Dissemination of this information without the expressed written consent of the Public Affairs Office, Tulsa District U.S. Army Corps of Engineers is strictly prohibited.
These data are gathered electronically and, as presented, have not undergone any form of quality control. These data are not guaranteed to be valid or correct.
Go to home page.
Go to station list.
Go to home page.

Upstream stations:

Downstream station:
Previous Day
Next Day
Current Day
    
SHEF ID:       BVLO2     Caney River above Coon Creek at
STATION TYPE:  
Regulating: Stage =    13.00, Flow =    12189

               PRECIP     STAGE  STAGE(2)  RIV-FLOW  BAT-LOAD
                   in        ft        ft       cfs      volt
              Ccp-Rev   Ccp-Rev   Ccp-Rev   Ccp-Rev   Ccp-Rev
(US/Central)
05/22 00:00      0.00     17.71      ----     19523     12.65
05/22 01:00      0.00     17.60      ----     19089     12.65
05/22 02:00      0.00     17.48      ----     18655     12.65
05/22 03:00      0.00     17.35      ----     18367     12.65
05/22 04:00      0.00     17.22      ----     18080     12.65
05/22 05:00      0.00     17.09      ----     17194     12.57
05/22 06:00      0.00     16.95      ----     16906     12.57
05/22 07:00      0.00     16.78      ----     16563     12.57
05/22 08:00      0.00     16.64      ----     16302     12.65
05/22 09:00      0.00     16.50      ----     16042     13.05
05/22 10:00      0.00     16.34      ----     15747     13.21
05/22 11:00      0.00     16.16      ----     15477     13.29
05/22 12:00      0.00     16.01      ----     15261     13.21
05/22 13:00      0.00     15.87      ----     15059     13.84
05/22 14:00      0.00     15.71      ----     14853     13.53
05/22 15:00      0.00     15.55      ----     14655     13.44
05/22 16:00      0.00     15.41      ----     14482     13.13
05/22 17:00      0.00     15.28      ----     14322     13.13
05/22 18:00      0.00     15.14      ----     14149     13.05
05/22 19:00      0.03     15.01      ----     13989     13.05
05/22 20:00      0.00     14.87      ----     13816     12.73
05/22 21:00      0.01     14.71      ----     13679     12.65
05/22 22:00      1.17     14.75      ----     13712     12.65
05/22 23:00      0.06     14.75      ----     13712     12.65